User: anonymous   Login
Location: Unspecified
(0.0000°N, 0.0000°E)
Time: 08:21:35
(UTC+00:00)
Language:

LEMUR 2 YNDRD - Orbit

View from above orbital plane
View from above orbital plane
View from above satellite
View from above satellite

Ground track
Ground track

The orbit data is extracted from the following two-line orbital elements,

1 44404U 19038U   24054.92426236  .00118237  00000-0  13886-2 0  9996
2 44404  97.6797  54.3763 0013433 111.3683 248.9009 15.60966884257311
Epoch (UTC): 23 February 2024 22:10:56
Eccentricity: 0.0013433
inclination: 97.6797°
perigee height: 376 km
apogee height: 394 km
right ascension of ascending node: 54.3763°
argument of perigee: 111.3683°
revolutions per day: 15.60966884
mean anomaly at epoch: 248.9009°
orbit number at epoch: 25731

The dashed part of the orbit path shows where the satellite is in the earth's shadow,  

DLR